Find Starlink 31633

NORAD ID: 59331 Int'l Des: 2024-057 Owner: SPXS Country: US Constellation: starlink operational
LEOCIRCULAR

Current View

Loading 3D Globe...

About Starlink 31633

Starlink 31633 (NORAD 59331) is a starlink constellation satellite (v2 mini) launched Mar 25, 2024 by SPXS of US. It operates in LEO, CIRCULAR orbit with a mass of 730.00 kg.

About Starlink 31633

Description loading...

Upcoming Passes

Passes for default location (London). Set your location on the main map for personalized predictions.

Altitude History

Loading altitude history...

Two-Line Element Set

1 59331U 24057M 26173.74436642 .00000394 00000-0 23849-4 0 9990
2 59331 43.0022 313.9653 0001254 261.5815 98.4895 15.27576327125909
Epoch: Jun 22, 2026 • Age: 11 hours

Current Status

Altitude 485.9 km
Velocity 7.63 km/s
Sub-Earth Point 38.33°N, 82.13°E
Launch Date Mar 25, 2024
Age 2.2 years
Type internet

Technical Details

Classification Payload
Mass 730.00 kg
Dry Mass 700.00 kg
Total Mass 730.00 kg
Length 0.30 m
Diameter 4.10 m
Span 29.00 m
Shape Box + pan
Manufacturer SPXS
Bus Type Starlink V2M
Phase Status In Orbit
Owner/State SPXS/US

Most Searched